KE7YUP Weather Reports


Display with metric or nautical units.
time (UTC)temp
F
wind
direction
speed
MPH
gust
MPH
rain 1hr
in
rain 24hr
in
rain mn
in
humidity
%
barometer
mb
20260904162216 75 173 9.0 16.0 0.00 0.00 0.00 30 1018.6
20260904161216 75 168 10.0 18.0 0.00 0.00 0.00 29 1018.8
20260904160215 75 167 11.0 17.0 0.00 0.00 0.00 30 1018.8
20260904155236 74 178 10.0 18.0 0.00 0.00 0.00 31 1018.9
20260904154216 73 169 4.0 11.0 0.00 0.00 0.00 26 1018.4
20260904153216 72 147 7.0 10.0 0.00 0.00 0.00 25 1018.3
20260904152215 71 148 7.0 10.0 0.00 0.00 0.00 25 1018.1
20260904151216 71 137 7.0 12.0 0.00 0.00 0.00 25 1018.1
20260904150216 70 162 1.0 2.0 0.00 0.00 0.00 28 1017.7
20260904145215 70 170 2.0 5.0 0.00 0.00 0.00 28 1017.9
20260904144215 70 139 3.0 5.0 0.00 0.00 0.00 29 1018.1
20260904143216 70 97 3.0 3.0 0.00 0.00 0.00 28 1018.0
20260904142215 70 242 1.0 2.0 0.00 0.00 0.00 25 1018.1
20260904141216 69 242 0.0 1.0 0.00 0.00 0.00 26 1017.9
20260904140215 68 0.0 1.0 0.00 0.00 0.00 26 1017.7
20260904135216 67 242 0.0 1.0 0.00 0.00 0.00 28 1017.4
20260904134215 66 242 0.0 2.0 0.00 0.00 0.00 27 1017.6
20260904133215 65 242 4.0 5.0 0.00 0.00 0.00 27 1017.3
20260904132215 64 297 1.0 4.0 0.00 0.00 0.00 27 1017.0
20260904131215 65 246 1.0 2.0 0.00 0.00 0.00 26 1016.9
20260904130215 65 246 1.0 3.0 0.00 0.00 0.00 25 1016.7
20260904125215 66 247 2.0 4.0 0.00 0.00 0.00 24 1016.8
20260904124215 66 250 3.0 4.0 0.00 0.00 0.00 24 1017.1
20260904123215 66 250 3.0 5.0 0.00 0.00 0.00 23 1017.0
20260904122215 65 240 1.0 3.0 0.00 0.00 0.00 23 1016.5
20260904121215 66 240 3.0 4.0 0.00 0.00 0.00 23 1016.8
20260904120215 66 244 3.0 3.0 0.00 0.00 0.00 23 1016.8
20260904115215 66 244 3.0 4.0 0.00 0.00 0.00 23 1016.8
20260904114215 67 228 4.0 5.0 0.00 0.00 0.00 22 1016.6
20260904113215 66 240 5.0 9.0 0.00 0.00 0.00 23 1016.6
20260904112215 65 271 3.0 4.0 0.00 0.00 0.00 24 1016.3
20260904111215 65 241 1.0 2.0 0.00 0.00 0.00 22 1016.3
20260904110215 65 241 1.0 2.0 0.00 0.00 0.00 22 1016.1
20260904105215 66 234 1.0 2.0 0.00 0.00 0.00 21 1016.4
20260904104215 66 245 5.0 8.0 0.00 0.00 0.00 21 1016.3
20260904103215 66 269 5.0 6.0 0.00 0.00 0.00 22 1016.3
20260904102215 67 233 1.0 4.0 0.00 0.00 0.00 21 1016.5
20260904101215 66 231 2.0 5.0 0.00 0.00 0.00 20 1016.1
20260904100215 65 279 3.0 4.0 0.00 0.00 0.00 28 1015.8
20260904095215 66 62 2.0 3.0 0.00 0.00 0.00 32 1016.2
20260904094215 66 26 4.0 5.0 0.00 0.00 0.00 30 1015.8
20260904093235 65 7 5.0 8.0 0.00 0.00 0.00 30 1015.6
20260904092215 67 56 3.0 5.0 0.00 0.00 0.00 31 1016.0
20260904091217 65 71 4.0 6.0 0.00 0.00 0.00 33 1015.4
20260904090215 66 42 2.0 2.0 0.00 0.00 0.00 21 1015.6
20260904085237 65 42 0.0 4.0 0.00 0.00 0.00 23 1015.2
20260904084215 65 294 2.0 3.0 0.00 0.00 0.00 30 1015.3
20260904083237 67 298 3.0 4.0 0.00 0.00 0.00 33 1015.6
20260904082217 68 119 0.0 3.0 0.00 0.00 0.00 30 1015.7
20260904081217 67 105 2.0 4.0 0.00 0.00 0.00 29 1015.3
20260904080217 67 74 1.0 3.0 0.00 0.00 0.00 33 1015.4
20260904075217 66 302 2.0 3.0 0.00 0.00 0.00 35 1015.0
20260904074216 67 59 1.0 2.0 0.00 0.00 0.00 32 1015.1
20260904073217 68 105 1.0 2.0 0.00 0.00 0.00 30 1015.4
20260904072217 70 220 2.0 2.0 0.00 0.00 0.00 21 1015.4
20260904071216 72 169 1.0 6.0 0.00 0.00 0.00 21 1015.4
20260904070216 72 194 2.0 4.0 0.00 0.00 0.00 17 1015.3
20260904065236 72 173 4.0 10.0 0.00 0.00 0.00 18 1015.2
20260904064237 71 184 2.0 4.0 0.00 0.00 0.00 19 1014.9
20260904063216 72 257 2.0 3.0 0.00 0.00 0.00 19 1015.1
20260904062236 73 158 4.0 10.0 0.00 0.00 0.00 17 1015.0
20260904061216 73 189 4.0 9.0 0.00 0.00 0.00 18 1014.9
20260904060216 73 206 3.0 7.0 0.00 0.00 0.00 18 1015.0
20260904055236 73 200 5.0 8.0 0.00 0.00 0.00 18 1014.9
20260904054216 73 198 5.0 7.0 0.00 0.00 0.00 18 1014.8
20260904053215 74 186 2.0 5.0 0.00 0.00 0.00 18 1014.8
20260904052216 74 194 5.0 8.0 0.00 0.00 0.00 18 1014.8
20260904051216 74 191 7.0 12.0 0.00 0.00 0.00 18 1014.8
20260904050236 74 190 5.0 12.0 0.00 0.00 0.00 18 1014.6
20260904045236 74 194 7.0 10.0 0.00 0.00 0.00 18 1014.8
20260904044215 74 192 6.0 9.0 0.00 0.00 0.00 18 1014.5
20260904043216 74 203 5.0 8.0 0.00 0.00 0.00 18 1014.5
20260904042215 75 209 5.0 9.0 0.00 0.00 0.00 18 1014.4
20260904041216 75 218 5.0 8.0 0.00 0.00 0.00 17 1014.6
20260904040215 76 190 5.0 11.0 0.00 0.00 0.00 17 1014.3
20260904035215 75 201 5.0 10.0 0.00 0.00 0.00 17 1014.3
20260904034215 76 188 5.0 8.0 0.00 0.00 0.00 17 1014.4
20260904033215 76 192 6.0 11.0 0.00 0.00 0.00 17 1014.4
20260904032215 76 176 5.0 9.0 0.00 0.00 0.00 17 1014.0
20260904031235 76 191 5.0 8.0 0.00 0.00 0.00 17 1013.6
20260904030215 75 191 6.0 11.0 0.00 0.00 0.00 18 1013.4
20260904025215 75 192 4.0 7.0 0.00 0.00 0.00 18 1013.5
20260904024215 75 191 5.0 10.0 0.00 0.00 0.00 18 1012.7
20260904023215 76 180 2.0 4.0 0.00 0.00 0.00 18 1013.0
20260904022215 77 193 2.0 4.0 0.00 0.00 0.00 17 1012.9
20260904021215 78 196 4.0 8.0 0.00 0.00 0.00 17 1012.8
20260904020215 78 198 6.0 11.0 0.00 0.00 0.00 16 1012.9
20260904015215 78 188 6.0 11.0 0.00 0.00 0.00 17 1012.9
20260904014255 78 193 9.0 12.0 0.00 0.00 0.00 16 1012.8
20260904013215 79 189 7.0 12.0 0.00 0.00 0.00 16 1013.0
20260904012215 79 198 10.0 14.0 0.00 0.00 0.00 16 1012.9
20260904011215 80 194 11.0 20.0 0.00 0.00 0.00 16 1013.1
20260904010215 80 207 7.0 13.0 0.00 0.00 0.00 16 1013.1
20260904005215 80 210 7.0 17.0 0.00 0.00 0.00 16 1013.2
20260904004215 80 208 8.0 13.0 0.00 0.00 0.00 16 1013.6
20260904003215 81 192 10.0 19.0 0.00 0.00 0.00 15 1013.5
20260904002215 81 197 12.0 16.0 0.00 0.00 0.00 16 1013.6
20260904001215 82 188 5.0 11.0 0.00 0.00 0.00 16 1013.7
20260904000215 82 201 14.0 23.0 0.00 0.00 0.00 16 1013.6
20260903235215 83 190 17.0 26.0 0.00 0.00 0.00 15 1013.7
20260903234217 83 181 13.0 20.0 0.00 0.00 0.00 15 1013.8
20260903233217 82 165 10.0 23.0 0.00 0.00 0.00 15 1013.7
20260903232217 82 170 13.0 24.0 0.00 0.00 0.00 14 1013.6
20260903231217 83 208 11.0 24.0 0.00 0.00 0.00 15 1014.4
20260903230217 83 197 15.0 28.0 0.00 0.00 0.00 14 1014.6
20260903225217 82 195 12.0 18.0 0.00 0.00 0.00 14 1014.8
20260903224217 82 188 16.0 26.0 0.00 0.00 0.00 14 1014.9
20260903223216 82 189 15.0 24.0 0.00 0.00 0.00 14 1015.1
20260903222216 82 233 15.0 22.0 0.00 0.00 0.00 13 1015.2
20260903221216 83 208 9.0 23.0 0.00 0.00 0.00 12 1015.3
20260903220217 82 180 11.0 20.0 0.00 0.00 0.00 13 1015.3
20260903215217 82 192 15.0 23.0 0.00 0.00 0.00 12 1015.4
20260903214217 81 182 9.0 20.0 0.00 0.00 0.00 13 1015.2
20260903213236 81 179 14.0 22.0 0.00 0.00 0.00 13 1015.5
20260903212216 81 189 17.0 25.0 0.00 0.00 0.00 13 1015.7
20260903211236 81 187 12.0 21.0 0.00 0.00 0.00 13 1015.3
20260903210217 81 188 14.0 24.0 0.00 0.00 0.00 14 1015.7
20260903205216 81 189 14.0 26.0 0.00 0.00 0.00 14 1015.8
20260903204216 80 209 8.0 17.0 0.00 0.00 0.00 14 1015.9
20260903203217 80 179 15.0 22.0 0.00 0.00 0.00 14 1016.0
20260903202216 80 223 16.0 26.0 0.00 0.00 0.00 15 1016.1
20260903201236 80 214 9.0 16.0 0.00 0.00 0.00 15 1016.5
20260903200217 80 173 12.0 24.0 0.00 0.00 0.00 14 1016.7
20260903195217 79 220 6.0 12.0 0.00 0.00 0.00 15 1016.8
20260903194216 79 214 13.0 23.0 0.00 0.00 0.00 14 1016.9
20260903193216 78 189 10.0 15.0 0.00 0.00 0.00 14 1017.1
20260903192216 78 180 8.0 12.0 0.00 0.00 0.00 15 1017.2
20260903191256 78 170 9.0 14.0 0.00 0.00 0.00 15 1017.4
20260903190216 78 195 9.0 18.0 0.00 0.00 0.00 15 1017.5
20260903185216 77 205 5.0 13.0 0.00 0.00 0.00 14 1017.5
20260903184236 77 192 6.0 12.0 0.00 0.00 0.00 16 1017.7
20260903183216 77 186 7.0 13.0 0.00 0.00 0.00 15 1017.8
20260903182216 77 183 9.0 17.0 0.00 0.00 0.00 16 1017.9
20260903181216 76 170 11.0 15.0 0.00 0.00 0.00 16 1018.2
20260903180216 76 182 10.0 15.0 0.00 0.00 0.00 17 1018.5
20260903175216 75 160 7.0 12.0 0.00 0.00 0.00 17 1018.3
20260903174216 76 177 4.0 11.0 0.00 0.00 0.00 16 1018.6
20260903173216 76 191 8.0 12.0 0.00 0.00 0.00 17 1018.6
20260903172216 75 163 6.0 10.0 0.00 0.00 0.00 17 1018.7
20260903171216 75 165 7.0 12.0 0.00 0.00 0.00 17 1018.7
20260903170216 74 181 9.0 23.0 0.00 0.00 0.00 17 1018.8
20260903165216 74 186 10.0 19.0 0.00 0.00 0.00 18 1018.8
20260903164216 74 199 10.0 15.0 0.00 0.00 0.00 18 1018.6
20260903163236 73 193 9.0 15.0 0.00 0.00 0.00 18 1018.6